Location: Colebrook
(42.0017°N, 73.0973°W)
Time: 10:00:26
(UTC-04:00)

Vanguard 2 - All Passes

Search period start: 25 October 2021 00:00
Search period end: 04 November 2021 00:00
Orbit: 553 x 2936 km, 32.9° (Epoch: 24 October)

Date Brightness Start Highest point End Pass type
(mag) Time Alt. Az. Time Alt. Az. Time Alt. Az.
25 Oct - 01:45:13 10° SW 01:57:52 39° SSE 02:06:06 10° E visible
25 Oct - 03:56:44 10° WSW 04:07:17 46° S 04:13:43 10° ESE visible
25 Oct - 06:08:46 10° W 06:15:26 29° SSW 06:20:01 10° SE visible
25 Oct - 21:53:53 10° SE 21:55:08 10° SE 21:56:23 10° SE visible
25 Oct - 23:52:48 10° SSW 00:05:24 28° SSE 00:14:46 10° E night (unlit)
26 Oct - 02:02:28 10° SW 02:15:34 45° S 02:23:51 10° E visible
26 Oct - 04:14:30 10° WSW 04:24:53 46° S 04:31:14 10° ESE visible
26 Oct - 06:26:52 10° WSW 06:32:45 23° SSW 06:37:00 10° SSE visible
26 Oct - 22:04:13 10° S 22:12:40 16° SE 22:20:10 10° ESE visible
27 Oct - 00:09:15 10° SW 00:23:03 35° SSE 00:32:57 10° E night (unlit)
27 Oct - 02:19:56 10° WSW 02:33:15 49° S 02:41:33 10° ESE visible
27 Oct - 04:32:20 10° W 04:42:26 43° SSW 04:48:40 10° SE visible
27 Oct - 06:45:14 10° WSW 06:49:59 18° SW 06:53:39 10° S visible
27 Oct - 22:18:46 10° S 22:30:12 22° SE 22:39:52 10° ESE visible
28 Oct - 00:26:05 10° SW 00:40:43 41° SSE 00:50:55 10° E night (unlit)
28 Oct - 02:37:34 10° WSW 02:50:57 52° S 02:59:10 10° ESE visible
28 Oct - 04:50:15 10° W 04:59:55 39° SSW 05:05:59 10° SE visible
28 Oct - 07:04:18 10° WSW 07:07:06 12° SW 07:09:31 10° SSW daylight
28 Oct - 22:34:23 10° SSW 22:47:45 28° SSE 22:58:39 10° E visible
29 Oct - 00:43:13 10° SW 00:58:25 47° SSE 01:08:44 10° E night (unlit)
29 Oct - 02:55:19 10° WSW 03:08:36 52° S 03:16:43 10° ESE visible
29 Oct - 05:08:15 10° W 05:17:18 33° SSW 05:23:10 10° SE visible
29 Oct - 20:47:43 10° SSE 20:54:58 14° SE 21:01:52 10° ESE visible
29 Oct - 22:50:36 10° SSW 23:05:19 34° SSE 23:16:59 10° E visible
30 Oct - 01:00:35 10° WSW 01:16:07 51° S 01:26:28 10° E night (unlit)
30 Oct - 03:13:08 10° W 03:26:13 51° S 03:34:13 10° ESE visible
30 Oct - 05:26:23 10° W 05:34:35 27° SSW 05:40:09 10° SSE visible
30 Oct - 21:01:29 10° S 21:12:20 20° SE 21:22:23 10° ESE visible
30 Oct - 23:07:16 10° SW 23:22:55 41° SSE 23:35:03 10° E visible
31 Oct - 01:18:08 10° WSW 01:33:50 55° S 01:44:08 10° ESE visible
31 Oct - 03:31:02 10° W 03:43:47 48° SSW 03:51:37 10° SE visible
31 Oct - 05:44:45 10° W 05:51:44 21° SW 05:56:48 10° S visible
31 Oct - 21:16:44 10° SSW 21:29:44 26° SE 21:41:34 10° E visible
31 Oct - 23:24:15 10° SW 23:40:33 47° SSE 23:52:58 10° E visible
01 Nov - 01:35:49 10° WSW 01:51:32 57° S 02:01:45 10° ESE visible
01 Nov - 03:48:59 10° W 04:01:15 43° SSW 04:08:56 10° SE visible
01 Nov - 06:03:37 10° WSW 06:08:48 16° SW 06:12:53 10° S visible
01 Nov - 19:34:12 10° SE 19:37:14 11° SE 19:40:17 10° ESE visible
01 Nov - 21:32:41 10° SSW 21:47:09 32° SSE 22:00:08 10° E visible
01 Nov - 23:41:29 10° SW 23:58:14 52° SSE 00:10:46 10° E visible
02 Nov - 01:53:37 10° WSW 02:09:13 57° S 02:19:19 10° ESE visible
02 Nov - 04:07:02 10° W 04:18:37 37° SSW 04:26:05 10° SE visible
02 Nov - 06:24:13 10° WSW 06:25:46 11° SW 06:27:12 10° SW visible
02 Nov - 19:45:30 10° SSE 19:54:25 16° SE 20:03:25 10° ESE visible
02 Nov - 21:49:09 10° SSW 22:04:37 39° SSE 22:18:22 10° E visible
02 Nov - 23:58:55 10° WSW 00:15:56 56° S 00:28:30 10° E visible
03 Nov - 02:11:28 10° W 02:26:52 55° SSW 02:36:49 10° ESE visible
03 Nov - 04:25:12 10° W 04:35:52 31° SW 04:43:01 10° SSE visible
03 Nov - 20:00:06 10° S 20:11:37 22° SE 20:23:17 10° E visible
03 Nov - 22:05:57 10° SW 22:22:09 45° SSE 22:36:23 10° E visible
